Starlink 31181

operational
NORAD ID: 58746 Int'l Des: 2024-005 Owner: SPXS Country: US Constellation: starlink
LEOCIRCULAR

Über Starlink 31181

Beschreibung wird geladen...

Live-Position

3D-Globus wird geladen...

Nächste Überflüge

Höhenverlauf

Altitude vs Time

uPlot chart will show altitude changes over time

Zweizeiliger Elementsatz

1 58746U 24005U 26034.63368935 -.00000580 00000-0 -11553-4 0 9993
2 58746 42.9975 259.8498 0000562 341.4887 18.5944 15.27586184117075
Epoch: 3. Feb. 2026 • Age: 17 hours

Aktueller Status

Höhe 484.8 km
Geschwindigkeit 7.62 km/s
Subsatellitenpunkt -9.34°S, 164.61°W
Startdatum 7. Jan. 2024
Alter 2 years
Typ internet

Technische Details

Klassifizierung Payload
Masse 730.00 kg
Trockenmasse 700.00 kg
Gesamtmasse 730.00 kg
Länge 0.30 m
Durchmesser 4.10 m
Spannweite 29.00 m
Form Box + pan
Hersteller SPXS
Bus-Typ Starlink V2M
Phasenstatus In Orbit
Besitzer/Staat SPXS/US

Große Konstellationen

Loading constellations...